Showing default

FLOCK 4G 1, 62666

Orbit data source: Space-Track

FLOCK 4G 1, 62666 is a payload satellite owned by Planet (US) in SSO that was launched on Tue, 14 Jan 2025 UTC via an FALCON 9 launch vehicle from the Air Force Western Test Range (AFWTR). Payload-class satellites include a variety of spacecraft equipped with specific instruments for various scientific and technological missions. These include communications satellites like Starlink; space stations such as the ISS; scientific satellites like the Hubble; Earth observation satellites from companies like Planet Labs, Umbra, and HawkEye 360; GPS; miniature CubeSats for education and research; and military/defense satellites.

Loading next visibility...
Identifier
62666, 2025-009BK
Orbit
SSO
Country
Flag of USUS
Related business
Manufacturer
Planet
Mission
Operational Commercial Imaging
Bus & Motor
CUBESAT 3U, Unknown motor
Mass
5.7 kg wet, 5.7 kg dry
Launch date (UTC)
2025-01-14 (1 year ago)
Launch vehicle
FALCON 9
Launch site
Air Force Western Test Range (AFWTR)
Object type
Payload
Rocket body
Debris
Shape & HBR
Box + 2 Pan, 1.0 m
Radar Cross Section
0.072 m², Medium (>0.1 m² and < 1m²)

Expand to show TLE details & history
Last TLE update: 8 hours ago

TLE from 8 hours ago
0 FLOCK 4G 1
1 62666U 25009BK  26034.22384549  .00012880  00000-0  49584-3 0  9996
2 62666  97.4128 117.0321 0005652  80.7772 279.4106 15.26485863 58452
Epoch: 2026-02-03T05:22Z
TLE epoch observation values (Epoch: 2026-02-03T05:22:20.250Z)
Latitude
0.00002°
Longitude
-96.96013°
Altitude
488.794 km
Speed
7.621 km/s
True Right ascension
07h 48m 07s
True Declination
0° 00' 00"
Sunlit
Object was in full shadow at epoch
Visualization orbit readout
Latitude
Unknown
Longitude
Unknown
Altitude
Unknown
Speed
Unknown
Apparent Right ascension
Unknown
Apparent Declination
Unknown
Sunlit
N/A
Visualization observer readout
Local Sidereal Time
14:59:06
Azimuth
Unknown
Elevation
Unknown
Doppler factor
Unknown
Orbital elements
Apogee altitude
487.163 km
Perigee altitude
479.407 km
Semi-major axis
6,861.422 km
Eccentricity
0.00057
Inclination
97.4128°
RAAN
117.0321°
Arg. of periapsis
80.7772°
True anomaly
279.3467°
Mean anomaly
279.4106°
Eccentric anomaly
279.37865°
Mean motion
3.81876 °/min
Orbital period
94.27 mins
BSTAR
0.00049584
Loading maneuver chart data...
Computing Atmospheric mass density...
Loading historical data...
Loading historical data...
Loading historical data...
Loading historical data...
Loading historical data...
Loading historical data...
Loading historical data...

Documentation

Showing up to 5 results
|